Regional Weather Roundup
Issued by NWS

Home | Current Version | Previous Version | Graphics & Text | Print | Product List | Glossary On
Versions: 1 2 3 4 5 6 7 8 9 10 11 12 13 14 15 16 17 18 19 20 21 22 23 24 25 26 27 28 29 30 31 32 33 34 35 36 37 38 39 40 41 42 43 44 45 46 47 48 49 50
964
ASUS44 KLIX 041310
RWRLA
LOUISIANA WEATHER ROUNDUP
NATIONAL WEATHER SERVICE NEW ORLEANS LA
700 AM CST WED MAR 04 2015

NOTE: "FAIR" INDICATES FEW OR NO CLOUDS BELOW 12,000 FEET WITH NO
      SIGNIFICANT WEATHER AND/OR OBSTRUCTIONS TO VISIBILITY.
      SKY/WX - SKY CONDITION AND SIGNIFICANT WEATHER.
      TMP - AIR TEMPERATURE.    DP   - DEWPOINT TEMPERATURE.
      RH  - RELATIVE HUMIDITY.  PRES - PRESSURE.
      HX  - HEAT INDEX.         WCI  - WIND CHILL INDEX.

*  THESE STATIONS ARE NOT NWS OR FAA STATIONS AND ARE NOT UNDER
   NWS QUALITY CONTROL.

LAZ040-048-061>063-065-066-069-041400-
SOUTHEAST LOUISIANA

CITY           SKY/WX    TMP DP  RH WIND       PRES   REMARKS
N.O. AUDUBON     N/A     67  67 100 MISG        N/A
N.O. INTL ARPT MOCLDY    69  66  90 S3        29.99R
N.O. LAKEFRONT CLOUDY    67  63  87 SE6       30.00R FOG
SLIDELL        LGT RAIN  67  67 100 CALM      30.00R
BATON ROUGE    MOCLDY    68  67  96 SE7       29.97R FOG
BOOTHVILLE     MOCLDY    64  64 100 E5        30.01R
BELLE CHASSE   MOCLDY    68  65  90 S7        29.99R FOG
BOGALUSA*        N/A     69  66  89 S3        30.01R
GALLIANO*      CLOUDY    64  63  97 CALM      29.99S FOG
NEW ROADS*     CLOUDY    67  66  98 SE7       29.97S FOG
GONZALES*      FOG       68  68 100 SE3       29.97S VSB 1/2
HAMMOND*       CLOUDY    64  63  94 CALM      30.00S FOG
HOUMA*         FOG       64  64 100 CALM      29.98R VSB 1/2
PORT FOURCHON* NOT AVBL

$$

LAZ041-044-053-054-041400-
SOUTHWEST LOUISIANA

CITY           SKY/WX    TMP DP  RH WIND       PRES   REMARKS
LAKE CHARLES   CLOUDY    65  65 100 CALM      29.92R FOG
LAFAYETTE      MOCLDY    66  65  96 S6        29.95R
PATTERSON      CLOUDY    64  64 100 SE3       29.96S VSB 1/4
SALT POINT       N/A     65  65 100 SE6       29.95S
NEW IBERIA     FOG       65  64  97 SE8       29.95S VSB 1/16
CHENAULT AIRPK FOG       64  64 100 SE5       29.93R VSB 1/2

$$

LAZ027-028-041400-
CENTRAL LOUISIANA

CITY           SKY/WX    TMP DP  RH WIND       PRES   REMARKS
FORT POLK      CLOUDY    68  66  94 S9        29.92R
ALEXANDRIA INT CLOUDY    65  65 100 CALM      29.93R FOG
ALEXANDRIA     CLOUDY    69  66  90 S5        29.94R

$$

LAZ001-002-041400-
NORTHWEST LOUISIANA

CITY           SKY/WX    TMP DP  RH WIND       PRES   REMARKS
SHREVEPORT     FOG       64  64 100 CALM      29.87F VSB 1
BARKSDALE AFB  CLOUDY    63  63 100 S6        29.87F FOG
DTN SHREVEPORT FOG       63  61  93 S5        29.87F VSB 3/4

$$

LAZ014-016-041400-
NORTHEAST LOUISIANA

CITY           SKY/WX    TMP DP  RH WIND       PRES   REMARKS
MONROE         CLOUDY    66  65  96 S5        29.92R
TALLULAH       PTCLDY    65  64  97 S8        29.94R FOG

$$




USA.gov is the U.S. government's official web portal to all federal, state and local government web resources and services.